Location: Peach Mountain Observatory
(42.3967°N, 83.9367°W)
Time: 20:10:32
(UTC-05:00)

Transit 4A - Pass Details

Date: 24 January 2020
Orbit: 872 x 973 km, 66.8° (Epoch: 27 February)

Event Time Altitude Azimuth Distance (km) Brightness Sun altitude
Rises 06:02:51 0° 173° (S) 3,558 11.1 -21.0°
Reaches altitude 10° 06:05:48 10° 161° (SSE) 2,602 10.6 -20.4°
Maximum altitude 06:10:36 25° 108° (ESE) 1,721 10.1 -19.6°
Drops below altitude 10° 06:15:21 10° 54° (NE) 2,563 10.8 -18.7°
Sets 06:18:13 0° 42° (NE) 3,494 11.4 -18.2°
